When you browse on this site, cookies collect data to enhance your experience and personalize the content and advertising you see.
Visit our Privacy Policy to learn more. By continuing to use the site, you agree to this use of cookies and data.
  • In United Kingdom
  • List of Countries
  • For 7 days
  • Water Temperature
  • Satellite Maps
  • Weather Map
  • Weather Widgets
  • user-avatar
    Login

    Hourly Weather Hamhŭng

    Today, 25 June, Tuesday

    Time Temperature Precipitation Wind Pressure Humidity
    00:00 +19°C° 0 mm 1 mps 758 mmHg 89%
    01:00 +19°C° 0 mm 1 mps 758 mmHg 89%
    02:00 +19°C° 0 mm 1 mps 758 mmHg 89%
    03:00 +18°C° 0 mm 1 mps 758 mmHg 88%
    04:00 +19°C° 0 mm 1 mps 758 mmHg 87%
    05:00 +19°C° 0 mm 1 mps 758 mmHg 85%
    06:00 +20°C° 0 mm 1 mps 758 mmHg 83%
    07:00 +22°C° 0 mm 1 mps 758 mmHg 74%
    08:00 +24°C° 0 mm 1 mps 758 mmHg 66%
    09:00 +27°C° 0 mm 1 mps 758 mmHg 58%
    10:00 +28°C° 0 mm 2 mps 758 mmHg 54%
    11:00 +29°C° 0 mm 2 mps 758 mmHg 51%
    12:00 +30°C° 0 mm 3 mps 758 mmHg 47%
    13:00 +30°C° 0 mm 3 mps 757 mmHg 49%
    14:00 +30°C° 0 mm 3 mps 756 mmHg 50%
    15:00 +29°C° 0 mm 3 mps 756 mmHg 52%
    16:00 +28°C° 0 mm 3 mps 756 mmHg 57%
    17:00 +27°C° 0 mm 2 mps 756 mmHg 62%
    18:00 +27°C° 0 mm 2 mps 756 mmHg 67%
    19:00 +25°C° 0 mm 2 mps 756 mmHg 74%
    20:00 +23°C° 0 mm 1 mps 756 mmHg 81%
    21:00 +21°C° 0 mm 1 mps 757 mmHg 88%
    22:00 +21°C° 0 mm 1 mps 757 mmHg 87%
    23:00 +21°C° 0 mm 1 mps 757 mmHg 86%

    Tomorrow, 26 June, Wednesday

    Time Temperature Precipitation Wind Pressure Humidity
    00:00 +21°C° 0 mm 1 mps 757 mmHg 85%
    01:00 +20°C° 0 mm 1 mps 757 mmHg 85%
    02:00 +20°C° 0 mm 1 mps 756 mmHg 85%
    03:00 +20°C° 0 mm 1 mps 756 mmHg 84%
    04:00 +19°C° 0 mm 2 mps 756 mmHg 81%
    05:00 +19°C° 0 mm 2 mps 756 mmHg 78%
    06:00 +19°C° 0 mm 2 mps 756 mmHg 76%
    07:00 +23°C° 0 mm 1 mps 755 mmHg 67%
    08:00 +26°C° 0 mm 1 mps 755 mmHg 58%
    09:00 +28°C° 0 mm 1 mps 755 mmHg 49%
    10:00 +29°C° 0 mm 1 mps 754 mmHg 46%
    11:00 +30°C° 0 mm 2 mps 754 mmHg 42%
    12:00 +33°C° 0 mm 3 mps 754 mmHg 38%
    13:00 +33°C° 0 mm 3 mps 753 mmHg 39%
    14:00 +33°C° 0 mm 3 mps 752 mmHg 40%
    15:00 +31°C° 0 mm 3 mps 752 mmHg 41%
    16:00 +30°C° 0 mm 2 mps 752 mmHg 47%
    17:00 +29°C° 0 mm 2 mps 752 mmHg 52%
    18:00 +28°C° 0 mm 1 mps 751 mmHg 58%
    19:00 +26°C° 0 mm 1 mps 752 mmHg 65%
    20:00 +24°C° 0 mm 1 mps 752 mmHg 71%
    21:00 +22°C° 0 mm 1 mps 752 mmHg 77%
    22:00 +22°C° 0 mm 1 mps 752 mmHg 77%
    23:00 +22°C° 0 mm 1 mps 752 mmHg 76%

    Day after tomorrow, 27 June, Thursday

    Time Temperature Precipitation Wind Pressure Humidity
    00:00 +22°C° 0 mm 1 mps 752 mmHg 76%
    01:00 +21°C° 0 mm 1 mps 751 mmHg 75%
    02:00 +21°C° 0 mm 1 mps 751 mmHg 73%
    03:00 +21°C° 0 mm 1 mps 750 mmHg 72%
    04:00 +21°C° 0 mm 1 mps 750 mmHg 71%
    05:00 +22°C° 0 mm 1 mps 750 mmHg 70%
    06:00 +20°C° 0 mm 0 mps 750 mmHg 69%
    07:00 +22°C° 0 mm 0 mps 750 mmHg 63%
    08:00 +26°C° 0 mm 1 mps 749 mmHg 57%
    09:00 +28°C° 0 mm 1 mps 749 mmHg 51%
    10:00 +30°C° 0 mm 1 mps 749 mmHg 48%
    11:00 +31°C° 0 mm 2 mps 749 mmHg 44%
    12:00 +34°C° 0 mm 3 mps 749 mmHg 40%
    13:00 +34°C° 0 mm 3 mps 748 mmHg 41%
    14:00 +34°C° 0 mm 3 mps 748 mmHg 41%
    15:00 +34°C° 0 mm 4 mps 747 mmHg 42%
    16:00 +33°C° 0 mm 3 mps 747 mmHg 47%
    17:00 +31°C° 0 mm 3 mps 747 mmHg 51%
    18:00 +29°C° 0 mm 2 mps 747 mmHg 56%
    19:00 +27°C° 0 mm 2 mps 747 mmHg 66%
    20:00 +25°C° 0 mm 2 mps 748 mmHg 77%
    21:00 +22°C° 0 mm 1 mps 748 mmHg 87%
    22:00 +22°C° 0 mm 1 mps 748 mmHg 88%
    23:00 +22°C° 0 mm 1 mps 748 mmHg 89%

    28 June, Friday

    Time Temperature Precipitation Wind Pressure Humidity
    00:00 +20°C° 0 mm 0 mps 748 mmHg 90%
    01:00 +22°C° 0 mm 1 mps 748 mmHg 89%
    02:00 +21°C° 0 mm 1 mps 748 mmHg 88%
    03:00 +21°C° 0 mm 1 mps 748 mmHg 87%
    04:00 +22°C° 0 mm 1 mps 748 mmHg 86%
    05:00 +20°C° 0 mm 0 mps 748 mmHg 86%
    06:00 +20°C° 0 mm 0 mps 748 mmHg 85%
    07:00 +23°C° 0 mm 1 mps 748 mmHg 80%
    08:00 +25°C° 0 mm 1 mps 748 mmHg 75%
    09:00 +26°C° 0 mm 2 mps 748 mmHg 70%
    10:00 +27°C° 0 mm 2 mps 748 mmHg 67%
    11:00 +27°C° 0 mm 3 mps 748 mmHg 64%
    12:00 +28°C° 0 mm 3 mps 748 mmHg 61%
    13:00 +28°C° 0 mm 3 mps 748 mmHg 63%
    14:00 +28°C° 0 mm 3 mps 748 mmHg 65%
    15:00 +27°C° 0 mm 3 mps 748 mmHg 66%
    16:00 +26°C° 0.1 mm 3 mps 748 mmHg 71%
    17:00 +25°C° 0.1 mm 2 mps 748 mmHg 76%
    18:00 +24°C° 0.1 mm 2 mps 748 mmHg 81%
    19:00 +23°C° 0.1 mm 1 mps 749 mmHg 86%
    20:00 +22°C° 0.1 mm 1 mps 749 mmHg 91%
    21:00 +19°C° 0.1 mm 0 mps 749 mmHg 95%
    22:00 +19°C° 0 mm 0 mps 749 mmHg 95%
    23:00 +19°C° 0 mm 0 mps 749 mmHg 94%

    29 June, Saturday

    Time Temperature Precipitation Wind Pressure Humidity
    00:00 +20°C° 0 mm 1 mps 749 mmHg 94%
    01:00 +18°C° 0 mm 0 mps 749 mmHg 93%
    02:00 +18°C° 0 mm 0 mps 749 mmHg 92%
    03:00 +18°C° 0 mm 0 mps 749 mmHg 92%
    04:00 +18°C° 0 mm 0 mps 748 mmHg 90%
    05:00 +19°C° 0 mm 0 mps 748 mmHg 88%
    06:00 +19°C° 0 mm 0 mps 748 mmHg 87%
    07:00 +22°C° 0 mm 1 mps 748 mmHg 83%
    08:00 +23°C° 0 mm 1 mps 748 mmHg 79%
    09:00 +24°C° 0 mm 1 mps 748 mmHg 76%
    10:00 +24°C° 0.1 mm 1 mps 748 mmHg 76%
    11:00 +25°C° 0.1 mm 2 mps 747 mmHg 76%
    12:00 +25°C° 0.1 mm 2 mps 747 mmHg 76%
    13:00 +24°C° 0.2 mm 2 mps 747 mmHg 81%
    14:00 +24°C° 0.2 mm 2 mps 746 mmHg 87%
    15:00 +23°C° 0.2 mm 2 mps 746 mmHg 92%
    16:00 +23°C° 0.5 mm 2 mps 746 mmHg 94%
    17:00 +21°C° 0.5 mm 2 mps 746 mmHg 95%
    18:00 +21°C° 0.5 mm 2 mps 746 mmHg 97%
    19:00 +21°C° 1 mm 2 mps 746 mmHg 97%
    20:00 +21°C° 1 mm 2 mps 746 mmHg 98%
    21:00 +21°C° 1 mm 2 mps 747 mmHg 98%
    22:00 +21°C° 1.1 mm 2 mps 747 mmHg 98%
    23:00 +21°C° 1.1 mm 2 mps 747 mmHg 98%

    30 June, Sunday

    Time Temperature Precipitation Wind Pressure Humidity
    00:00 +21°C° 1.1 mm 2 mps 747 mmHg 98%
    01:00 +21°C° 3.4 mm 2 mps 746 mmHg 98%
    02:00 +21°C° 3.4 mm 2 mps 746 mmHg 98%
    03:00 +20°C° 3.4 mm 2 mps 745 mmHg 99%
    04:00 +20°C° 1.9 mm 2 mps 746 mmHg 98%
    05:00 +20°C° 1.9 mm 2 mps 746 mmHg 98%
    06:00 +20°C° 1.9 mm 2 mps 746 mmHg 98%
    07:00 +21°C° 1.8 mm 2 mps 746 mmHg 97%
    08:00 +21°C° 1.8 mm 2 mps 746 mmHg 96%
    09:00 +21°C° 1.8 mm 2 mps 747 mmHg 95%
    10:00 +21°C° 0.5 mm 3 mps 747 mmHg 94%
    11:00 +21°C° 0.5 mm 3 mps 746 mmHg 94%
    12:00 +21°C° 0.5 mm 4 mps 746 mmHg 93%
    13:00 +21°C° 0.4 mm 4 mps 746 mmHg 93%
    14:00 +20°C° 0.4 mm 3 mps 746 mmHg 94%
    15:00 +20°C° 0.4 mm 3 mps 746 mmHg 95%
    16:00 +20°C° 0.3 mm 3 mps 746 mmHg 95%
    17:00 +20°C° 0.3 mm 3 mps 746 mmHg 95%
    18:00 +20°C° 0.3 mm 3 mps 746 mmHg 95%
    19:00 +19°C° 2 mm 3 mps 747 mmHg 96%
    20:00 +19°C° 2 mm 2 mps 747 mmHg 97%
    21:00 +19°C° 2 mm 2 mps 748 mmHg 98%
    22:00 +19°C° 1.3 mm 2 mps 748 mmHg 98%
    23:00 +19°C° 1.3 mm 2 mps 748 mmHg 98%
    Show more